• Em Portugal
  • Lista de países
  • Para 7 dias
  • Temperatura da água
  • Mapas de satélite
  • Mapa do tempo
  • Widgets de tempo
  • user-avatar
    Iniciar Sessão

    Previsão horária em Rozlazino

    Hoje, 19 Agosto, Domingo

    Tempo Temperatura Precipitação Vento Pressão Humidade
    00:00 +17°C° 0 mm 2 m/s 759 mmHg 68%
    01:00 +17°C° 0 mm 3 m/s 759 mmHg 68%
    02:00 +17°C° 0 mm 3 m/s 759 mmHg 70%
    03:00 +17°C° 0 mm 3 m/s 759 mmHg 71%
    04:00 +16°C° 0 mm 3 m/s 759 mmHg 72%
    05:00 +17°C° 0 mm 3 m/s 759 mmHg 71%
    06:00 +18°C° 0 mm 3 m/s 759 mmHg 69%
    07:00 +19°C° 0 mm 3 m/s 759 mmHg 68%
    08:00 +21°C° 0 mm 3 m/s 759 mmHg 64%
    09:00 +22°C° 0 mm 3 m/s 759 mmHg 60%
    10:00 +25°C° 0 mm 4 m/s 759 mmHg 55%
    11:00 +26°C° 0 mm 4 m/s 759 mmHg 54%
    12:00 +26°C° 0 mm 4 m/s 759 mmHg 53%
    13:00 +27°C° 0 mm 4 m/s 759 mmHg 51%
    14:00 +27°C° 0 mm 3 m/s 758 mmHg 51%
    15:00 +27°C° 0 mm 3 m/s 758 mmHg 51%
    16:00 +27°C° 0 mm 2 m/s 758 mmHg 52%
    17:00 +26°C° 0 mm 2 m/s 758 mmHg 57%
    18:00 +24°C° 0 mm 1 m/s 757 mmHg 63%
    19:00 +23°C° 0 mm 1 m/s 757 mmHg 68%
    20:00 +22°C° 0 mm 1 m/s 757 mmHg 69%
    21:00 +21°C° 0 mm 2 m/s 757 mmHg 69%
    22:00 +20°C° 0 mm 2 m/s 756 mmHg 70%
    23:00 +20°C° 0 mm 3 m/s 756 mmHg 69%

    Amanhã, 20 Agosto, Segunda-feira

    Tempo Temperatura Precipitação Vento Pressão Humidade
    00:00 +20°C° 0 mm 3 m/s 756 mmHg 68%
    01:00 +19°C° 0 mm 3 m/s 755 mmHg 67%
    02:00 +19°C° 0 mm 3 m/s 755 mmHg 66%
    03:00 +19°C° 0 mm 3 m/s 755 mmHg 65%
    04:00 +19°C° 0 mm 3 m/s 754 mmHg 64%
    05:00 +19°C° 0 mm 4 m/s 754 mmHg 64%
    06:00 +20°C° 0 mm 4 m/s 754 mmHg 64%
    07:00 +21°C° 0 mm 4 m/s 754 mmHg 64%
    08:00 +22°C° 0 mm 5 m/s 754 mmHg 61%
    09:00 +25°C° 0 mm 5 m/s 754 mmHg 59%
    10:00 +26°C° 0 mm 6 m/s 754 mmHg 56%
    11:00 +26°C° 0,1 mm 6 m/s 753 mmHg 59%
    12:00 +24°C° 0,1 mm 6 m/s 753 mmHg 62%
    13:00 +24°C° 0,1 mm 6 m/s 753 mmHg 65%
    14:00 +24°C° 0,2 mm 7 m/s 753 mmHg 67%
    15:00 +23°C° 0,2 mm 7 m/s 753 mmHg 69%
    16:00 +23°C° 0,2 mm 7 m/s 753 mmHg 71%
    17:00 +21°C° 0 mm 7 m/s 754 mmHg 71%
    18:00 +20°C° 0 mm 6 m/s 754 mmHg 70%
    19:00 +19°C° 0 mm 5 m/s 754 mmHg 70%
    20:00 +17°C° 0 mm 5 m/s 755 mmHg 70%
    21:00 +17°C° 0 mm 5 m/s 755 mmHg 69%
    22:00 +16°C° 0 mm 5 m/s 755 mmHg 69%
    23:00 +16°C° 0 mm 5 m/s 756 mmHg 72%

    Depois de amanhã, 21 Agosto, Terça-feira

    Tempo Temperatura Precipitação Vento Pressão Humidade
    00:00 +15°C° 0 mm 5 m/s 756 mmHg 74%
    01:00 +15°C° 0 mm 4 m/s 756 mmHg 76%
    02:00 +15°C° 0 mm 4 m/s 756 mmHg 78%
    03:00 +15°C° 0 mm 4 m/s 757 mmHg 80%
    04:00 +14°C° 0 mm 4 m/s 757 mmHg 82%
    05:00 +15°C° 0 mm 4 m/s 758 mmHg 79%
    06:00 +17°C° 0 mm 4 m/s 758 mmHg 76%
    07:00 +18°C° 0 mm 4 m/s 758 mmHg 73%
    08:00 +18°C° 0 mm 4 m/s 759 mmHg 69%
    09:00 +19°C° 0 mm 4 m/s 759 mmHg 65%
    10:00 +20°C° 0 mm 4 m/s 759 mmHg 61%
    11:00 +21°C° 0 mm 4 m/s 760 mmHg 58%
    12:00 +21°C° 0 mm 4 m/s 760 mmHg 56%
    13:00 +22°C° 0 mm 4 m/s 760 mmHg 53%
    14:00 +22°C° 0 mm 4 m/s 760 mmHg 54%
    15:00 +22°C° 0 mm 4 m/s 760 mmHg 54%
    16:00 +21°C° 0 mm 4 m/s 760 mmHg 55%
    17:00 +20°C° 0 mm 3 m/s 760 mmHg 61%
    18:00 +18°C° 0 mm 2 m/s 760 mmHg 68%
    19:00 +17°C° 0 mm 2 m/s 760 mmHg 74%
    20:00 +16°C° 0 mm 1 m/s 760 mmHg 78%
    21:00 +15°C° 0 mm 1 m/s 760 mmHg 81%
    22:00 +14°C° 0 mm 1 m/s 760 mmHg 84%
    23:00 +14°C° 0 mm 1 m/s 760 mmHg 85%

    22 Agosto, Quarta-feira

    Tempo Temperatura Precipitação Vento Pressão Humidade
    00:00 +14°C° 0 mm 1 m/s 760 mmHg 85%
    01:00 +13°C° 0 mm 1 m/s 760 mmHg 86%
    02:00 +13°C° 0 mm 1 m/s 760 mmHg 86%
    03:00 +13°C° 0 mm 2 m/s 760 mmHg 86%
    04:00 +13°C° 0 mm 2 m/s 760 mmHg 86%
    05:00 +14°C° 0 mm 2 m/s 760 mmHg 82%
    06:00 +15°C° 0 mm 2 m/s 760 mmHg 78%
    07:00 +17°C° 0 mm 2 m/s 760 mmHg 74%
    08:00 +19°C° 0 mm 2 m/s 760 mmHg 65%
    09:00 +21°C° 0 mm 2 m/s 760 mmHg 57%
    10:00 +24°C° 0 mm 2 m/s 760 mmHg 49%
    11:00 +25°C° 0 mm 2 m/s 760 mmHg 46%
    12:00 +26°C° 0 mm 2 m/s 759 mmHg 43%
    13:00 +27°C° 0 mm 2 m/s 759 mmHg 40%
    14:00 +27°C° 0 mm 2 m/s 758 mmHg 39%
    15:00 +27°C° 0 mm 2 m/s 758 mmHg 39%
    16:00 +27°C° 0 mm 2 m/s 757 mmHg 39%
    17:00 +26°C° 0 mm 2 m/s 757 mmHg 45%
    18:00 +24°C° 0 mm 1 m/s 757 mmHg 50%
    19:00 +22°C° 0 mm 1 m/s 757 mmHg 56%
    20:00 +20°C° 0 mm 2 m/s 757 mmHg 58%
    21:00 +19°C° 0 mm 2 m/s 757 mmHg 59%
    22:00 +19°C° 0 mm 2 m/s 757 mmHg 60%
    23:00 +18°C° 0 mm 2 m/s 757 mmHg 60%

    23 Agosto, Quinta-feira

    Tempo Temperatura Precipitação Vento Pressão Humidade
    00:00 +18°C° 0 mm 2 m/s 756 mmHg 61%
    01:00 +18°C° 0 mm 2 m/s 756 mmHg 61%
    02:00 +17°C° 0 mm 2 m/s 756 mmHg 62%
    03:00 +17°C° 0 mm 2 m/s 756 mmHg 63%
    04:00 +17°C° 0 mm 2 m/s 756 mmHg 64%
    05:00 +18°C° 0 mm 2 m/s 756 mmHg 63%
    06:00 +19°C° 0 mm 2 m/s 756 mmHg 61%
    07:00 +20°C° 0 mm 2 m/s 756 mmHg 59%
    08:00 +23°C° 0 mm 1 m/s 756 mmHg 53%
    09:00 +26°C° 0 mm 1 m/s 755 mmHg 47%
    10:00 +28°C° 0 mm 1 m/s 755 mmHg 41%
    11:00 +29°C° 0 mm 1 m/s 755 mmHg 39%
    12:00 +29°C° 0 mm 1 m/s 755 mmHg 37%
    13:00 +30°C° 0 mm 1 m/s 754 mmHg 35%
    14:00 +30°C° 0 mm 2 m/s 754 mmHg 35%
    15:00 +30°C° 0 mm 2 m/s 753 mmHg 36%
    16:00 +30°C° 0 mm 2 m/s 753 mmHg 37%
    17:00 +28°C° 0 mm 2 m/s 753 mmHg 42%
    18:00 +26°C° 0 mm 2 m/s 752 mmHg 48%
    19:00 +24°C° 0 mm 3 m/s 752 mmHg 54%
    20:00 +24°C° 0 mm 3 m/s 752 mmHg 55%
    21:00 +22°C° 0 mm 3 m/s 751 mmHg 56%
    22:00 +21°C° 0 mm 3 m/s 751 mmHg 57%
    23:00 +21°C° 0 mm 4 m/s 751 mmHg 57%

    24 Agosto, Sexta-feira

    Tempo Temperatura Precipitação Vento Pressão Humidade
    00:00 +21°C° 0 mm 4 m/s 750 mmHg 58%
    01:00 +21°C° 0 mm 4 m/s 750 mmHg 59%
    02:00 +21°C° 0 mm 4 m/s 749 mmHg 58%
    03:00 +21°C° 0 mm 4 m/s 749 mmHg 58%
    04:00 +21°C° 0 mm 4 m/s 749 mmHg 57%
    05:00 +21°C° 0,6 mm 4 m/s 749 mmHg 63%
    06:00 +21°C° 0,6 mm 3 m/s 749 mmHg 69%
    07:00 +21°C° 0,6 mm 3 m/s 749 mmHg 74%
    08:00 +22°C° 0,4 mm 3 m/s 749 mmHg 74%
    09:00 +22°C° 0,4 mm 3 m/s 749 mmHg 74%
    10:00 +23°C° 0,4 mm 4 m/s 749 mmHg 73%
    11:00 +22°C° 0,4 mm 4 m/s 749 mmHg 76%
    12:00 +22°C° 0,4 mm 4 m/s 749 mmHg 79%
    13:00 +21°C° 0,4 mm 4 m/s 749 mmHg 82%
    14:00 +20°C° 0,2 mm 4 m/s 749 mmHg 80%
    15:00 +20°C° 0,2 mm 3 m/s 749 mmHg 79%
    16:00 +20°C° 0,2 mm 3 m/s 749 mmHg 78%
    17:00 +19°C° 0,3 mm 2 m/s 749 mmHg 80%
    18:00 +18°C° 0,3 mm 2 m/s 749 mmHg 82%
    19:00 +18°C° 0,3 mm 1 m/s 749 mmHg 84%
    20:00 +18°C° 0,1 mm 1 m/s 750 mmHg 85%
    21:00 +18°C° 0,1 mm 1 m/s 750 mmHg 86%
    22:00 +16°C° 0,1 mm 1 m/s 750 mmHg 86%
    23:00 +16°C° 0,1 mm 1 m/s 750 mmHg 87%
    Mostrar mais